Temperature
7 7 8 8 9 10 10 10 10 11 12 12 12 12 13 15 15 15 16 17 17 17 17 17 17 17 17 17 17 16 16 16 16 15 15 15 15 15 15 15 15 15 15 14
7 7 8 9 10 10 10 10 10 11 12 12 12 12 12 13 14 15 16 16 16 16 16 16 16 16 16 16 16 16 16 16 15 15 15 15 15 15 15 15 15 14 14 14
7 8 9 10 10 10 10 10 10 10 11 12 12 11 11 12 13 14 15 16 16 16 15 15 15 15 16 15 15 15 15 15 15 15 15 15 15 15 15 14 14 14 14 14
7 8 9 9 9 10 10 10 10 10 10 9 11 9 10 11 11 12 13 14 15 14 14 14 14 14 14 14 14 14 14 14 14 14 14 14 14 14 14 14 14 14 14 14
6 8 8 9 9 10 10 10 10 10 9 9 9 9 9 10 10 11 11 13 13 13 13 13 13 13 13 13 13 13 13 13 13 13 13 13 13 13 13 13 13 13 13 13
6 7 8 8 9 10 10 9 9 8 8 8 8 8 8 9 10 10 10 12 12 12 12 12 12 12 12 12 12 12 12 12 12 12 12 13 13 13 13 13 13 13 13 13
6 7 7 8 8 9 9 8 8 8 8 7 8 8 9 10 9 10 10 11 11 11 11 11 11 11 11 11 11 11 11 11 11 11 11 11 11 11 12 12 12 12 12 12
6 7 7 7 8 8 8 8 7 7 7 7 8 8 9 9 10 11 11 11 11 11 11 11 11 11 10 10 10 10 10 10 10 10 10 10 10 10 10 10 10 11 11 11
6 7 7 7 8 8 8 8 8 7 7 7 7 8 9 9 9 9 10 10 11 11 11 11 10 10 10 10 10 10 9 9 9 9 9 9 9 9 9 9 9 9 9 9
7 6 7 7 8 8 8 8 7 6 7 7 8 8 8 8 8 8 8 9 10 10 10 10 10 10 9 9 9 9 9 8 8 8 8 8 8 8 8 8 8 8 8 8
7 6 7 7 7 7 7 8 7 6 6 7 7 8 9 8 8 8 8 10 10 10 10 10 9 9 9 8 8 8 8 8 7 8 7 7 7 7 7 7 7 7 7 7
7 6 6 6 7 8 8 8 7 7 6 5 5 7 9 8 8 8 9 10 11 10 10 10 9 9 8 8 7 7 7 7 7 7 7 7 7 7 6 6 6 6 6 7
7 6 5 6 6 7 7 7 7 7 6 4 5 7 9 8 8 9 10 10 10 10 10 9 9 8 8 7 7 7 6 6 6 6 6 6 6 6 6 6 6 6 6 6
8 6 5 6 6 6 6 6 7 6 5 5 5 7 9 8 8 8 10 11 10 10 10 9 9 8 7 7 6 6 6 6 5 5 5 5 5 5 5 5 5 5 5 5
7 6 6 7 7 6 6 6 6 6 5 5 7 7 8 8 8 9 10 10 10 10 9 9 8 8 7 6 6 5 5 5 5 4 5 5 5 5 4 4 4 4 4 4
6 6 7 7 7 7 6 6 6 6 6 6 7 7 8 9 9 9 10 10 10 10 9 9 8 7 7 6 5 5 4 4 4 4 4 4 4 4 3 3 3 3 3 3
6 6 6 5 6 6 5 6 7 6 6 7 7 8 8 8 8 9 10 10 10 10 9 9 8 7 6 5 5 4 4 3 3 3 3 3 3 3 2 2 2 2 2 2
6 5 5 5 6 5 6 7 7 7 7 7 7 8 8 9 10 10 10 10 10 10 9 8 7 6 6 5 4 3 3 3 2 3 2 2 2 2 2 2 1 1 1 1
6 6 5 5 5 5 7 8 7 7 7 7 7 8 8 9 9 8 10 10 10 9 9 8 7 6 5 4 3 3 2 2 2 2 2 2 2 1 1 1 1 1 1 1
6 6 5 5 5 5 7 9 9 8 7 8 7 7 8 8 6 7 9 9 9 8 8 7 6 5 4 3 3 2 2 2 2 1 1 1 1 1 1 1 1 0 0 0
5 5 5 5 5 6 7 8 8 7 7 8 8 8 8 7 8 9 9 8 8 7 7 6 5 4 4 3 2 2 1 1 1 1 1 1 1 1 1 0 0 -0 -0 -0
5 5 5 5 5 6 8 7 7 7 8 8 8 8 8 8 8 8 8 7 7 6 6 5 4 4 3 2 2 2 1 1 1 1 1 1 1 1 0 -0 -0 -0 -0 -1
5 5 5 5 6 7 8 8 9 9 8 8 8 8 8 8 8 8 7 7 6 6 5 4 4 3 3 2 2 2 2 1 1 1 1 1 1 0 0 -0 -0 -0 -1 -1
5 5 5 5 6 7 8 9 9 9 9 8 8 8 8 8 8 7 7 6 6 5 5 4 4 3 3 3 2 2 2 1 1 1 1 1 0 0 -0 -0 -1 -1 -1 -1
5 5 5 5 6 7 8 8 9 8 8 8 8 7 7 7 7 7 6 6 5 5 4 4 4 4 3 3 3 2 2 1 1 1 1 1 0 0 -0 -0 -1 -1 -1 -1
4 5 5 5 6 6 7 8 8 8 8 7 7 7 7 7 6 6 6 5 5 5 4 4 4 4 3 3 3 2 2 1 1 1 1 1 0 0 -0 -0 -1 -1 -1 -1
Wind_Speed
6 6 11 13 9 5 8 8 8 6 5 8 9 9 8 6 4 6 7 6 5 4 1 3 4 5 6 6 6 4 3 1 1 1 2 3 4 4 4 5 8 10 11 11
5 8 8 7 7 5 7 8 7 3 4 7 8 10 8 8 7 8 8 8 7 5 4 4 5 7 7 6 6 6 6 4 2 1 1 2 2 3 4 3 5 7 8 10
6 5 8 9 8 6 6 9 9 6 2 2 4 6 9 9 7 6 7 7 7 9 8 6 6 6 7 7 6 5 5 4 3 2 1 1 1 2 2 2 3 4 7 9
2 2 7 9 9 7 5 6 9 8 7 3 6 5 8 9 9 10 9 7 8 8 8 7 7 6 6 5 5 5 5 5 4 3 3 2 1 1 2 2 3 4 6 7
2 3 8 9 8 7 4 2 6 7 6 2 3 4 8 5 11 13 11 9 9 9 9 9 7 7 6 4 5 5 6 6 6 5 4 2 1 1 2 2 4 4 4 5
2 2 2 3 3 4 4 7 8 5 4 4 7 6 8 7 11 9 10 10 9 9 9 8 6 7 5 5 5 5 6 6 6 6 6 4 3 2 3 3 4 4 3 3
2 1 1 1 5 3 5 7 4 2 3 7 6 6 10 9 9 10 12 11 10 10 9 8 7 6 5 5 5 5 5 5 6 6 6 5 4 3 3 3 3 4 3 3
5 4 2 1 4 6 6 7 7 6 7 4 4 9 8 7 7 8 11 12 11 9 8 8 8 7 6 5 4 4 5 5 6 6 5 5 5 3 3 3 3 3 3 3
5 4 2 1 2 5 6 4 4 4 3 2 6 7 7 3 4 8 11 12 11 10 9 8 7 6 6 5 4 4 5 5 5 5 5 6 6 5 5 5 4 4 4 4
5 5 3 2 3 2 3 5 5 5 5 5 5 6 6 6 8 9 11 11 10 9 8 8 7 6 5 4 4 5 5 4 4 5 5 5 6 6 6 6 7 7 7 7
4 6 5 3 6 7 4 4 4 5 4 5 4 7 6 11 12 13 11 10 10 9 9 8 6 6 6 5 5 5 5 5 5 5 5 6 6 6 7 7 7 7 7 8
4 5 4 1 1 3 4 6 6 5 5 5 3 7 6 8 9 10 9 8 9 9 8 8 7 6 6 5 5 5 4 5 4 5 5 6 6 7 7 7 7 7 8 8
5 6 5 1 1 2 4 5 6 4 4 5 5 7 5 2 8 9 9 9 8 8 8 7 6 6 6 6 5 5 4 4 4 5 6 6 6 7 7 7 7 8 8 8
5 4 5 9 6 7 6 6 8 6 5 6 7 7 4 4 8 9 9 10 9 9 9 8 7 6 6 6 5 5 4 4 5 5 6 6 6 6 6 7 7 8 8 8
4 3 2 3 3 6 6 7 10 10 9 8 8 8 8 9 10 10 10 9 8 8 8 9 8 7 6 6 5 5 4 4 5 5 5 5 5 6 6 7 8 8 8 9
3 3 1 1 2 4 5 9 11 12 9 9 7 8 7 6 6 7 9 10 9 9 9 9 8 8 8 7 6 6 5 4 5 5 5 5 5 6 7 7 7 8 8 8
3 4 3 2 2 2 7 11 13 9 8 10 13 11 4 5 8 10 10 10 10 10 9 10 9 8 8 7 7 7 6 5 5 5 5 5 5 6 6 7 7 7 7 7
5 5 3 2 1 6 8 4 8 11 10 10 8 7 9 10 7 6 7 9 9 9 9 9 8 8 7 6 7 6 6 6 6 5 5 5 6 6 6 6 6 6 5 5
5 5 3 3 3 7 8 4 6 7 7 10 12 8 7 6 4 2 3 5 7 8 7 7 7 7 7 8 8 8 7 6 6 6 5 5 6 6 6 6 5 4 4 4
3 5 4 3 3 5 6 3 3 4 5 5 9 10 9 8 5 6 5 5 6 7 7 7 7 7 8 7 8 8 7 7 6 6 6 6 6 6 6 6 5 3 3 4
3 3 4 4 4 7 6 2 5 3 6 3 4 7 8 8 6 4 7 5 6 6 7 7 8 7 7 8 8 8 7 7 6 6 6 6 6 6 6 5 3 4 4 4
7 5 6 5 5 8 3 5 6 6 1 1 3 4 6 5 5 6 6 6 7 6 6 7 7 6 6 7 8 8 7 6 7 7 6 6 6 5 5 5 4 3 4 4
7 8 6 7 8 5 4 6 4 4 3 2 3 4 6 6 5 5 5 6 7 7 7 6 7 7 6 7 8 9 8 8 8 7 7 6 5 5 5 5 5 3 3 3
4 4 4 4 7 6 4 3 2 4 4 4 4 4 4 5 5 5 5 6 7 7 7 7 8 8 7 7 8 8 9 9 8 8 7 6 6 5 5 4 4 4 4 4
5 4 4 5 5 3 4 5 5 3 4 5 4 3 4 4 4 5 5 6 7 7 7 8 9 9 9 8 8 8 9 9 8 8 7 6 6 6 5 4 4 4 4 5
5 6 6 6 6 5 5 4 5 6 5 5 5 3 2 3 3 3 4 5 6 7 8 8 9 9 9 9 9 9 10 10 9 8 7 6 5 5 5 4 2 4 5 5
Wind_Direction
166 173 192 195 190 167 148 149 173 197 193 170 198 222 242 263 247 225 217 207 200 193 174 87 83 87 84 65 68 63 70 31 119 150 199 223 238 245 245 241 237 231 228 226
140 200 193 169 174 156 154 159 175 200 204 181 207 232 241 245 235 223 213 206 192 171 143 100 78 69 73 72 63 56 50 43 50 116 197 216 236 247 249 264 263 253 246 240
167 176 168 173 182 173 181 181 182 181 131 136 161 260 248 249 238 232 220 202 183 174 161 136 105 88 79 69 61 56 41 41 41 38 53 31 26 345 321 291 285 278 271 260
135 166 164 175 186 172 196 204 182 161 145 203 174 234 261 232 235 227 215 193 175 160 146 139 126 108 93 78 60 48 38 39 32 38 61 79 112 258 276 290 291 301 296 284
142 151 163 179 187 169 185 171 151 155 144 143 179 202 274 234 227 226 210 193 176 161 150 145 136 123 105 82 61 44 41 38 31 38 48 65 53 280 300 320 326 324 322 317
81 37 123 169 153 152 125 83 66 62 97 213 206 192 265 228 219 213 196 182 170 160 148 138 126 115 96 73 60 50 48 37 27 34 37 45 34 0 352 347 339 329 324 328
80 46 22 121 123 118 132 121 118 146 198 236 199 200 246 246 228 201 182 172 165 157 146 139 131 119 106 86 67 55 56 38 25 30 30 27 24 21 10 343 335 337 337 337
150 160 170 110 152 165 174 151 162 175 197 246 204 223 251 275 252 183 160 155 155 155 152 149 144 134 122 106 85 69 64 47 33 32 26 25 25 27 15 2 354 349 343 339
152 142 125 114 96 139 151 170 162 133 155 204 243 266 300 360 114 139 146 150 158 159 157 151 145 137 130 118 100 90 80 63 42 33 34 34 27 27 22 16 18 13 4 360
128 126 141 124 93 28 136 142 119 137 165 222 256 248 235 213 184 166 161 161 162 158 154 152 149 144 137 125 107 92 89 78 53 41 39 47 33 32 32 37 36 30 22 22
119 124 136 151 190 180 161 158 159 161 182 184 234 260 225 205 192 178 173 168 165 165 165 161 156 148 135 121 111 100 86 75 59 54 52 47 39 37 40 43 37 32 31 30
137 117 130 187 282 187 187 182 164 172 213 194 202 266 285 224 190 170 170 173 172 169 166 161 155 146 137 129 118 106 92 80 69 67 62 54 47 46 46 43 38 38 40 38
136 120 117 114 304 219 213 205 190 160 145 173 189 263 327 128 157 166 167 170 169 165 162 158 156 154 150 141 129 114 100 90 82 79 72 60 52 52 50 45 43 45 46 44
120 129 168 187 202 178 196 206 186 167 189 207 218 248 287 174 167 173 174 175 174 175 172 169 168 165 156 146 137 127 112 101 97 90 81 71 63 62 59 55 52 51 50 50
99 137 190 219 184 162 192 200 196 201 200 198 221 221 229 206 189 185 182 178 177 183 184 181 176 169 159 149 142 134 121 108 106 100 92 83 78 74 69 64 59 56 55 55
99 136 117 312 235 204 227 221 212 216 214 219 232 246 238 216 188 183 184 181 189 196 194 185 175 169 167 163 156 145 133 124 116 111 105 98 89 82 78 73 68 64 59 56
148 141 139 262 303 21 265 229 215 213 209 198 222 231 211 193 192 192 191 191 197 200 192 183 178 173 170 167 158 153 145 133 124 118 112 106 98 91 85 83 77 71 64 59
151 141 147 173 118 241 246 239 205 217 229 211 215 212 203 209 206 197 192 192 197 192 183 177 167 162 159 155 149 143 140 137 132 127 124 120 111 104 97 92 87 79 73 68
154 150 156 170 229 276 284 250 187 195 248 223 217 212 201 188 144 233 219 192 190 180 167 163 158 154 151 152 149 143 142 141 140 141 139 134 128 122 115 109 102 96 90 78
120 128 152 182 220 250 264 277 171 133 268 252 207 201 184 156 179 231 188 152 142 137 138 142 141 141 150 155 148 146 150 152 155 152 145 140 135 132 130 128 123 115 107 101
151 159 187 200 237 267 260 222 115 168 254 297 182 180 173 182 196 176 144 140 140 137 141 143 145 152 160 156 150 153 158 165 159 148 142 140 138 138 138 135 134 132 123 112
176 186 196 186 218 255 247 145 182 221 240 87 116 135 146 146 129 132 144 147 147 145 148 150 152 157 159 157 156 161 169 162 151 146 144 143 145 148 147 145 147 146 142 132
194 194 191 198 218 246 215 203 220 174 163 157 129 126 133 138 153 158 165 167 168 166 164 160 160 162 166 168 168 173 173 160 154 151 154 155 152 151 154 159 159 155 157 159
249 197 190 239 258 253 239 222 195 173 167 152 140 138 140 151 162 173 178 181 181 179 177 170 167 175 183 184 182 177 168 166 161 163 165 163 159 157 158 161 164 165 173 176
236 191 205 242 266 276 256 220 199 168 142 130 123 134 149 154 171 186 192 195 193 190 184 180 185 191 192 187 187 178 172 170 169 170 170 169 169 164 163 167 181 182 199 192
213 196 197 229 229 211 235 223 183 167 167 159 146 137 128 152 184 195 207 205 199 194 187 189 193 195 193 189 190 184 179 176 172 175 178 177 173 171 168 166 172 208 203 207
Height
1488 1492 1492 1493 1495 1496 1500 1506 1509 1509 1505 1509 1512 1513 1511 1509 1510 1511 1512 1514 1516 1518 1520 1522 1523 1525 1526 1528 1529 1530 1531 1532 1534 1535 1536 1536 1537 1538 1539 1540 1541 1541 1542 1542
1490 1491 1490 1492 1495 1496 1500 1505 1508 1507 1505 1508 1512 1512 1509 1508 1508 1508 1509 1511 1513 1515 1517 1518 1520 1521 1523 1524 1526 1527 1528 1529 1529 1531 1531 1532 1533 1533 1534 1535 1536 1536 1536 1537
1487 1488 1489 1492 1495 1498 1500 1504 1508 1509 1508 1509 1512 1514 1510 1505 1505 1506 1506 1507 1509 1511 1513 1515 1517 1519 1520 1521 1522 1523 1524 1525 1526 1526 1527 1528 1528 1528 1529 1530 1530 1531 1531 1531
1488 1487 1489 1492 1495 1497 1502 1500 1503 1507 1513 1517 1515 1523 1510 1504 1503 1502 1502 1504 1505 1508 1510 1512 1514 1516 1517 1518 1519 1520 1520 1521 1521 1522 1523 1523 1523 1524 1524 1524 1524 1525 1525 1524
1488 1487 1489 1492 1493 1495 1499 1498 1502 1507 1512 1517 1517 1521 1511 1502 1502 1497 1498 1500 1502 1505 1508 1510 1512 1513 1514 1515 1516 1516 1517 1517 1517 1518 1518 1518 1518 1518 1519 1518 1518 1518 1518 1518
1488 1489 1490 1491 1493 1495 1497 1501 1506 1511 1515 1521 1517 1521 1512 1502 1494 1491 1493 1496 1499 1503 1506 1508 1509 1511 1512 1513 1513 1513 1514 1514 1514 1514 1514 1514 1514 1514 1513 1513 1513 1513 1512 1512
1490 1491 1491 1491 1494 1496 1498 1506 1515 1518 1520 1520 1512 1514 1503 1489 1486 1485 1487 1492 1496 1500 1503 1506 1507 1509 1510 1510 1511 1511 1511 1511 1511 1510 1510 1510 1509 1509 1508 1508 1507 1507 1506 1506
1490 1492 1492 1492 1492 1495 1498 1503 1512 1516 1519 1519 1510 1509 1495 1485 1480 1480 1484 1489 1494 1498 1501 1504 1506 1507 1508 1508 1509 1509 1508 1508 1508 1507 1507 1506 1506 1505 1504 1504 1503 1502 1501 1501
1487 1491 1492 1492 1492 1494 1498 1501 1503 1511 1513 1515 1511 1500 1490 1483 1481 1481 1484 1488 1492 1496 1499 1502 1504 1505 1506 1506 1506 1506 1506 1505 1505 1504 1503 1503 1502 1501 1500 1500 1499 1498 1497 1496
1483 1489 1491 1492 1493 1495 1496 1498 1506 1513 1514 1512 1504 1499 1494 1486 1484 1483 1484 1487 1491 1495 1498 1500 1502 1503 1504 1504 1504 1504 1503 1503 1502 1501 1500 1499 1499 1498 1497 1496 1495 1494 1494 1493
1482 1488 1492 1493 1494 1494 1497 1499 1501 1506 1510 1510 1506 1498 1481 1480 1479 1480 1483 1486 1489 1493 1496 1498 1500 1501 1502 1502 1501 1501 1500 1500 1499 1498 1498 1497 1496 1495 1495 1494 1493 1492 1491 1490
1480 1488 1493 1494 1492 1491 1493 1494 1498 1504 1506 1509 1510 1497 1475 1475 1476 1479 1482 1486 1489 1492 1495 1497 1498 1499 1499 1499 1499 1498 1498 1497 1497 1496 1495 1495 1494 1493 1493 1492 1491 1490 1489 1488
1478 1487 1496 1497 1498 1494 1492 1491 1492 1496 1502 1510 1510 1494 1475 1473 1476 1479 1482 1485 1488 1491 1493 1494 1495 1496 1496 1496 1496 1496 1495 1495 1494 1494 1493 1493 1492 1492 1491 1490 1489 1488 1487 1486
1476 1484 1490 1490 1487 1489 1491 1489 1489 1494 1500 1502 1498 1488 1478 1477 1477 1479 1481 1483 1486 1489 1490 1492 1493 1493 1494 1494 1493 1493 1493 1493 1492 1492 1491 1491 1491 1490 1489 1489 1488 1487 1486 1485
1476 1483 1482 1482 1480 1484 1484 1484 1486 1489 1489 1493 1486 1482 1476 1475 1475 1476 1479 1482 1484 1486 1488 1489 1489 1490 1491 1491 1491 1491 1491 1490 1490 1490 1490 1490 1489 1489 1488 1488 1487 1486 1485 1484
1477 1481 1482 1482 1480 1481 1481 1480 1481 1481 1481 1482 1480 1478 1472 1471 1473 1475 1477 1479 1481 1483 1484 1485 1486 1487 1488 1488 1488 1488 1488 1488 1488 1488 1488 1488 1488 1488 1487 1487 1487 1486 1485 1484
1479 1482 1486 1489 1482 1481 1484 1473 1473 1474 1472 1473 1475 1471 1469 1470 1471 1472 1474 1476 1478 1479 1481 1482 1483 1484 1485 1485 1486 1486 1486 1486 1486 1486 1487 1487 1487 1487 1487 1487 1486 1486 1485 1484
1478 1482 1487 1489 1487 1489 1472 1463 1464 1465 1465 1465 1464 1464 1465 1466 1468 1470 1472 1473 1475 1476 1478 1479 1480 1481 1482 1483 1483 1484 1484 1484 1485 1485 1485 1486 1486 1486 1486 1486 1486 1486 1486 1485
1473 1478 1484 1488 1488 1481 1467 1461 1461 1464 1462 1458 1459 1460 1462 1464 1467 1468 1469 1471 1472 1474 1475 1476 1477 1478 1479 1480 1480 1481 1482 1482 1483 1484 1484 1485 1486 1486 1486 1486 1486 1486 1486 1485
1473 1475 1482 1484 1482 1479 1465 1457 1456 1460 1461 1453 1453 1456 1459 1462 1468 1467 1467 1468 1470 1471 1472 1473 1474 1475 1476 1477 1478 1479 1480 1481 1482 1483 1483 1484 1485 1486 1486 1486 1486 1486 1486 1486
1475 1477 1480 1481 1479 1471 1460 1456 1458 1466 1460 1452 1451 1452 1456 1459 1461 1463 1464 1466 1467 1469 1470 1471 1472 1473 1474 1475 1476 1477 1478 1479 1481 1482 1483 1484 1484 1485 1486 1486 1486 1486 1486 1486
1472 1474 1475 1476 1476 1471 1456 1456 1459 1457 1453 1452 1452 1453 1455 1457 1459 1461 1462 1464 1465 1466 1467 1468 1469 1470 1472 1473 1474 1475 1476 1478 1479 1481 1482 1483 1484 1484 1485 1486 1486 1486 1485 1485
1466 1466 1466 1467 1464 1456 1454 1453 1453 1453 1453 1453 1453 1454 1455 1457 1458 1460 1461 1462 1463 1464 1465 1466 1467 1468 1469 1471 1472 1473 1475 1476 1478 1479 1481 1482 1483 1484 1484 1485 1485 1485 1485 1484
1460 1459 1461 1460 1456 1453 1452 1452 1452 1453 1453 1453 1454 1455 1456 1457 1458 1459 1459 1460 1461 1462 1463 1464 1465 1465 1467 1468 1470 1472 1473 1475 1476 1478 1479 1480 1481 1482 1483 1483 1484 1484 1483 1483
1457 1456 1457 1456 1453 1451 1450 1450 1451 1452 1452 1453 1454 1454 1455 1456 1456 1457 1457 1458 1459 1459 1460 1461 1462 1463 1464 1466 1467 1469 1471 1473 1474 1476 1477 1479 1480 1481 1481 1482 1482 1482 1482 1481
1453 1454 1455 1453 1449 1450 1448 1448 1449 1450 1451 1452 1453 1453 1454 1454 1454 1455 1455 1455 1456 1456 1457 1458 1459 1460 1461 1463 1465 1467 1468 1470 1472 1474 1475 1477 1478 1479 1479 1480 1480 1480 1480 1479